Buffalo, MN

12:13 PM CST on December 06, 2019 (GMT -0600)
Buffalo

Weather History for KCFE - October, 2019

Change the Weather History Date:

Friday, October 25, 2019

  Actual Average (KMIC) Record (KMIC)
Temperature  
Mean Temperature 42 °F -  
Max Temperature 56 °F 51 °F 78 °F (1992)
Min Temperature 27 °F 35 °F 24 °F (1997)
Degree Days  
Heating Degree Days 24    
Moisture  
Dew Point 28 °F    
Average Humidity 61    
Maximum Humidity 90    
Minimum Humidity 34    
Precipitation  
Precipitation 0.00 in - - ()
Sea Level Pressure  
Sea Level Pressure 30.17 in    
Wind  
Wind Speed - (North)    
Max Wind Speed -    
Max Gust Speed -    
Visibility 10 miles    
Events      
Averages and records for this station are not official NWS values.
T = Trace of Precipitation, MM = Missing Value Source: NWS Daily Summary

Daily Weather History Graph

Daily Weather History Graph

Search for Another Location

Airport or City:

Astronomy

Oct. 25, 2019 Rise Set
Actual Time 7:44 AM CDT 6:13 PM CDT
Civil Twilight 7:14 AM CDT 6:44 PM CDT
Nautical Twilight 6:39 AM CDT 7:18 PM CDT
Astronomical Twilight 6:05 AM CDT 7:52 PM CDT
Moon 4:14 AM CDT (10/25) 5:27 PM CDT (10/25)
Length of Visible Light 11h 29m
Length of Day
10h 29m
Waning Crescent, 9% of the Moon is Illuminated
Oct 25
Waning Crescent
Oct 27
New
Nov 4
First Quarter
Nov 12
Full
Nov 19
Last Quarter

Hourly Weather History & Observations

Time (CDT) Temp. Dew Point Humidity Pressure Visibility Wind Dir Wind Speed Gust Speed Precip Events Conditions
12:15 AM 27.3 °F 24.6 °F 90% 30.34 in 10.0 mi North - - N/A   Clear
12:16 AM 27.3 °F 24.6 °F 90% 30.34 in 10.0 mi North - - N/A   Clear
12:35 AM 27.7 °F 25.2 °F 90% 30.34 in 10.0 mi North - - N/A   Clear
12:36 AM 27.7 °F 25.2 °F 90% 30.34 in 10.0 mi North - - N/A   Clear
12:55 AM 27.9 °F 25.0 °F 89% 30.33 in 10.0 mi North - - N/A   Clear
1:15 AM 29.3 °F 25.2 °F 85% 30.33 in 10.0 mi North - - N/A   Clear
1:35 AM 29.7 °F 24.8 °F 82% 30.33 in 10.0 mi North - - N/A   Clear
1:55 AM 30.7 °F 24.6 °F 78% 30.32 in 10.0 mi North - - N/A   Clear
2:15 AM 30.7 °F 24.8 °F 79% 30.32 in 10.0 mi North - - N/A   Clear
2:35 AM 30.7 °F 24.8 °F 79% 30.32 in 10.0 mi North - - N/A   Clear
2:55 AM 30.0 °F 24.3 °F 79% 30.31 in 10.0 mi North - - N/A   Clear
3:15 AM 30.2 °F 24.4 °F 79% 30.30 in 10.0 mi North - - N/A   Clear
3:35 AM 30.7 °F 24.3 °F 77% 30.30 in 10.0 mi North - - N/A   Clear
3:36 AM 30.7 °F 24.3 °F 77% 30.30 in 10.0 mi North - - N/A   Clear
3:55 AM 30.7 °F 24.3 °F 77% 30.29 in 10.0 mi North - - N/A   Clear
4:15 AM 30.2 °F 24.4 °F 79% 30.29 in 10.0 mi North - - N/A   Clear
4:16 AM 30.2 °F 24.4 °F 79% 30.29 in 10.0 mi North - - N/A   Clear
4:35 AM 30.2 °F 24.3 °F 79% 30.28 in 10.0 mi North - - N/A   Clear
4:55 AM 29.8 °F 24.4 °F 80% 30.29 in 10.0 mi North - - N/A   Clear
4:56 AM 29.8 °F 24.4 °F 80% 30.29 in 10.0 mi North - - N/A   Clear
5:15 AM 30.2 °F 24.6 °F 80% 30.29 in 10.0 mi North - - N/A   Clear
5:35 AM 30.2 °F 24.8 °F 80% 30.29 in 10.0 mi North - - N/A   Clear
5:55 AM 29.8 °F 25.2 °F 83% 30.28 in 10.0 mi North - - N/A   Clear
5:56 AM 29.8 °F 25.2 °F 83% 30.29 in 10.0 mi North - - N/A   Clear
6:15 AM 30.2 °F 25.3 °F 82% 30.29 in 10.0 mi North - - N/A   Clear
6:16 AM 30.2 °F 25.3 °F 82% 30.29 in 10.0 mi North - - N/A   Clear
6:35 AM 30.0 °F 25.2 °F 82% 30.28 in 10.0 mi North - - N/A   Scattered Clouds
6:36 AM 30.0 °F 25.2 °F 82% 30.28 in 10.0 mi North - - N/A   Scattered Clouds
6:55 AM 31.1 °F 26.1 °F 82% 30.28 in 10.0 mi North - - N/A   Mostly Cloudy
7:15 AM 31.6 °F 26.4 °F 81% 30.28 in 10.0 mi North - - N/A   Overcast
7:16 AM 31.6 °F 26.4 °F 81% 30.28 in 10.0 mi North - - N/A   Overcast
7:35 AM 31.6 °F 26.6 °F 82% 30.27 in 10.0 mi North - - N/A   Mostly Cloudy
7:55 AM 31.6 °F 26.4 °F 81% 30.27 in 10.0 mi North - - N/A   Scattered Clouds
7:56 AM 31.6 °F 26.4 °F 81% 30.27 in 10.0 mi North - - N/A   Scattered Clouds
8:15 AM 32.0 °F 26.6 °F 80% 30.26 in 10.0 mi North - - N/A   Clear
8:16 AM 32.0 °F 26.6 °F 80% 30.26 in 10.0 mi North - - N/A   Clear
8:35 AM 33.3 °F 27.3 °F 79% 30.26 in 10.0 mi North - - N/A   Clear
8:55 AM 34.5 °F 27.7 °F 76% 30.26 in 10.0 mi North - - N/A   Clear
9:16 AM 36.3 °F 28.4 °F 73% 30.25 in 10.0 mi North - - N/A   Clear
9:55 AM 39.2 °F 28.8 °F 66% 30.24 in 10.0 mi North - - N/A   Clear
10:15 AM 40.3 °F 28.8 °F 63% 30.24 in 10.0 mi North - - N/A   Clear
10:36 AM 41.7 °F 29.1 °F 61% 30.23 in 10.0 mi North - - N/A   Clear
10:55 AM 42.8 °F 29.8 °F 60% 30.23 in 10.0 mi North - - N/A   Clear
11:15 AM 43.7 °F 30.0 °F 59% 30.22 in 10.0 mi North - - N/A   Clear
11:16 AM 43.7 °F 29.8 °F 58% 30.22 in 10.0 mi North - - N/A   Clear
11:35 AM 45.3 °F 30.6 °F 56% 30.21 in 10.0 mi North - - N/A   Clear
11:55 AM 46.4 °F 30.4 °F 54% 30.20 in 10.0 mi North - - N/A   Clear
11:56 AM 46.4 °F 30.4 °F 54% 30.20 in 10.0 mi North - - N/A   Clear
12:15 PM 47.8 °F 30.7 °F 52% 30.19 in 10.0 mi North - - N/A   Clear
12:35 PM 48.7 °F 30.4 °F 49% 30.18 in 10.0 mi North - - N/A   Clear
12:55 PM 49.8 °F 30.0 °F 47% 30.17 in 10.0 mi North - - N/A   Clear
12:56 PM 50.0 °F 30.0 °F 46% 30.17 in 10.0 mi North - - N/A   Clear
1:15 PM 51.4 °F 30.9 °F 45% 30.16 in 10.0 mi North - - N/A   Clear
1:16 PM 51.4 °F 30.9 °F 45% 30.16 in 10.0 mi North - - N/A   Clear
1:35 PM 51.4 °F 29.8 °F 44% 30.15 in 10.0 mi North - - N/A   Clear
1:55 PM 52.2 °F 30.7 °F 44% 30.13 in 10.0 mi North - - N/A   Clear
2:15 PM 53.4 °F 30.2 °F 41% 30.12 in 10.0 mi North - - N/A   Clear
2:16 PM 53.4 °F 30.2 °F 41% 30.11 in 10.0 mi North - - N/A   Clear
2:35 PM 53.6 °F 30.0 °F 41% 30.11 in 10.0 mi North - - N/A   Clear
2:55 PM 54.9 °F 30.6 °F 40% 30.09 in 10.0 mi North - - N/A   Clear
3:15 PM 55.0 °F 29.1 °F 37% 30.08 in 10.0 mi North - - N/A   Clear
3:16 PM 55.0 °F 28.8 °F 37% 30.08 in 10.0 mi North - - N/A   Clear
3:35 PM 55.8 °F 28.9 °F 36% 30.07 in 10.0 mi North - - N/A   Clear
3:55 PM 56.1 °F 28.8 °F 35% 30.06 in 10.0 mi North - - N/A   Clear
4:15 PM 56.3 °F 29.3 °F 36% 30.05 in 10.0 mi North - - N/A   Clear
4:35 PM 56.3 °F 28.0 °F 34% 30.05 in 10.0 mi North - - N/A   Clear
4:36 PM 56.3 °F 28.0 °F 34% 30.05 in 10.0 mi North - - N/A   Clear
4:55 PM 55.8 °F 28.0 °F 35% 30.05 in 10.0 mi North - - N/A   Clear
4:56 PM 55.8 °F 28.2 °F 35% 30.05 in 10.0 mi North - - N/A   Clear
5:15 PM 55.4 °F 28.2 °F 35% 30.05 in 10.0 mi North - - N/A   Clear
5:16 PM 55.4 °F 28.2 °F 35% 30.05 in 10.0 mi North - - N/A   Clear
5:35 PM 54.7 °F 28.9 °F 37% 30.04 in 10.0 mi North - - N/A   Clear
5:36 PM 54.7 °F 28.8 °F 37% 30.04 in 10.0 mi North - - N/A   Clear
5:55 PM 54.0 °F 29.1 °F 39% 30.04 in 10.0 mi North - - N/A   Clear
6:15 PM 52.7 °F 29.3 °F 41% 30.03 in 10.0 mi North - - N/A   Clear
6:16 PM 52.5 °F 29.3 °F 41% 30.03 in 10.0 mi North - - N/A   Clear
6:35 PM 51.4 °F 29.8 °F 44% 30.04 in 10.0 mi North - - N/A   Clear
6:36 PM 51.4 °F 29.8 °F 44% 30.04 in 10.0 mi North - - N/A   Clear
6:55 PM 50.4 °F 29.8 °F 45% 30.04 in 10.0 mi North - - N/A   Clear
7:15 PM 49.5 °F 29.8 °F 47% 30.04 in 10.0 mi North - - N/A   Clear
7:35 PM 49.3 °F 29.8 °F 47% 30.04 in 10.0 mi North - - N/A   Clear
7:55 PM 48.6 °F 29.7 °F 48% 30.04 in 10.0 mi North - - N/A   Clear
8:15 PM 47.8 °F 29.8 °F 50% 30.04 in 10.0 mi North - - N/A   Clear
8:35 PM 47.8 °F 30.2 °F 50% 30.04 in 10.0 mi North - - N/A   Clear
8:55 PM 47.8 °F 30.4 °F 51% 30.03 in 10.0 mi North - - N/A   Clear
9:15 PM 47.8 °F 30.7 °F 52% 30.03 in 10.0 mi North - - N/A   Clear
9:35 PM 47.8 °F 30.4 °F 51% 30.03 in 10.0 mi North - - N/A   Clear
9:55 PM 47.3 °F 30.2 °F 52% 30.02 in 10.0 mi North - - N/A   Clear
10:15 PM 47.3 °F 30.0 °F 51% 30.03 in 10.0 mi North - - N/A   Clear
10:35 PM 46.9 °F 30.0 °F 52% 30.02 in 10.0 mi North - - N/A   Clear
10:55 PM 46.4 °F 30.0 °F 53% 30.01 in 10.0 mi North - - N/A   Clear
11:15 PM 46.0 °F 30.2 °F 54% 30.01 in 10.0 mi North - - N/A   Clear
11:35 PM 45.5 °F 30.0 °F 55% 30.01 in 10.0 mi North - - N/A   Clear
11:55 PM 44.8 °F 30.2 °F 57% 30.00 in 10.0 mi North - - N/A   Clear
11:56 PM 44.8 °F 30.2 °F 57% 30.00 in 10.0 mi North - - N/A   Clear